Flag for Canada Weather past 2 weeks in Edmonton, Alberta, Canada

Now
66 °F

Clear.


Feels Like: 66 °F
Forecast: 60 / 73 °F
Wind: 8 mph from South

Location: Edmonton Municipal

Current Time: Jul 24, 2014 at 3:18:07 AM

Latest Report: Jul 24, 2014 at 3:00 AM


Visibility: 9 mi

Pressure: 29.72 "Hg

Humidity: 83%

Dew point: 61 °F

Location of EdmontonLocation

Historic Weather in Edmonton — Graph

°F

Edmonton temperature yesterday

Maximum temperature yesterday: 77 °F (at 4:00 PM)
Minimum temperature yesterday: 63 °F (at 5:00 AM)
Average temperature yesterday: 71 °F

Past Weeks' High & Low Weather Summary

 TemperatureHumidityPressure
High84 °F (Jul 15, 3:00 PM)88% (Jul 24, 2:00 AM)30.27 "Hg (Jul 24, 2:00 AM)
Low50 °F (Jul 21, 5:00 AM)34% (Jul 11, 7:00 PM)29.54 "Hg (Jul 19, 3:00 AM)
Average66 °F59%29.92 "Hg
* Reported Jul 9 2:00 AM — Jul 24 2:00 AM, Edmonton, Weather by CustomWeather, © 2014

Note: Actual official high and low records may vary slightly from our data, if they occured in-between our weather recording intervals... More about our weather records

Advertising

Edmonton weather history for previous 24 hours

 ConditionsComfort  
Time TempWeatherWind HumidityBarometerVisibility
2:00 AM
Jul 24
64 °FClear.8 mph88%29.75 "Hg9 mi
1:00 AM66 °FClear.9 mph78%29.78 "Hg9 mi
12:00 AM68 °FClear.9 mph73%29.79 "Hg9 mi
11:00 PM
Jul 23
70 °FClear.9 mph69%29.81 "Hg9 mi
10:00 PM73 °FSunny.10 mph50%29.81 "Hg9 mi
9:00 PM75 °FSunny.9 mph50%29.81 "Hg9 mi
8:00 PM75 °FPassing clouds.8 mph54%29.83 "Hg9 mi
7:54 PM75 °FPassing clouds.9 mph54%29.85 "Hg9 mi
7:00 PM77 °FPartly sunny.14 mph54%29.85 "Hg9 mi
6:00 PM77 °FPassing clouds.8 mph54%29.88 "Hg9 mi
5:00 PM77 °FPartly sunny.10 mph54%29.90 "Hg9 mi
4:00 PM77 °FSunny.6 mph61%29.91 "Hg9 mi
3:00 PM75 °FPassing clouds.9 mph61%29.94 "Hg9 mi
2:00 PM75 °FBroken clouds.9 mph61%29.94 "Hg9 mi
1:00 PMN/ASunny.7 mphN/A29.96 "Hg9 mi
12:00 PM73 °FSunny.No wind53%29.95 "Hg9 mi
11:00 AM70 °FSunny.2 mph60%29.96 "HgN/A
10:02 AM68 °FSunny.N/A64%30.00 "Hg9 mi
9:00 AM66 °FSunny.7 mph64%29.99 "Hg9 mi
8:00 AM63 °FSunny.9 mph73%29.99 "Hg9 mi
7:00 AM63 °FSunny.8 mph73%29.98 "Hg9 mi
5:00 AM63 °FClear.7 mph73%30.00 "Hg9 mi
4:00 AM64 °FClear.9 mph68%30.01 "Hg9 mi
3:00 AM66 °FClear.10 mph64%30.01 "Hg9 mi
Weather by CustomWeather, © 2014

See weather overviewHow to use our weather pages